| time (UTC) | temp F | wind direction | speed MPH | gust MPH | rain 1hr in | rain 24hr in | rain mn in | humidity % | barometer mb |
| 20260505112439 | 57 | 0 | 0.0 | 6.0 | 0.00 | 0.16 | 0.13 | 86 | 1001.8 |
| 20260505111239 | 59 | 230 | 1.0 | 8.0 | 0.00 | 0.15 | 0.12 | 82 | 1001.9 |
| 20260505101239 | 57 | 0 | 0.0 | 6.0 | 0.01 | 0.15 | 0.12 | 86 | 1001.0 |
| 20260505100039 | 57 | 0 | 0.0 | 2.0 | 0.00 | 0.14 | 0.11 | 87 | 1000.9 |
| 20260505094326 | 57 | 0 | 0.0 | 4.0 | 0.00 | 0.14 | 0.11 | 87 | 1000.5 |
| 20260505093126 | 57 | 0 | 0.0 | 2.0 | 0.01 | 0.14 | 0.11 | 87 | 1000.5 |
| 20260505090851 | 56 | 0 | 0.0 | 2.0 | 0.01 | 0.14 | 0.11 | 88 | 1000.1 |
| 20260505085650 | 57 | 0 | 0.0 | 3.0 | 0.01 | 0.14 | 0.11 | 88 | 1000.1 |
| 20260505083939 | 57 | 0 | 0.0 | 2.0 | 0.02 | 0.14 | 0.11 | 88 | 1000.1 |
| 20260505082425 | 58 | 0 | 0.0 | 3.0 | 0.01 | 0.13 | 0.10 | 88 | 999.9 |
| 20260505081225 | 58 | 0 | 0.0 | 2.0 | 0.02 | 0.13 | 0.10 | 90 | 999.9 |
| 20260505080026 | 58 | 0 | 0.0 | 4.0 | 0.02 | 0.12 | 0.09 | 90 | 999.9 |
| 20260505074825 | 57 | 0 | 0.0 | 5.0 | 0.02 | 0.12 | 0.09 | 91 | 1000.1 |
| 20260505073625 | 57 | 0 | 0.0 | 7.0 | 0.02 | 0.11 | 0.08 | 91 | 1000.2 |
| 20260505072425 | 56 | 0 | 0.0 | 3.0 | 0.02 | 0.11 | 0.08 | 91 | 1000.2 |
| 20260505070440 | 56 | 0 | 0.0 | 2.0 | 0.02 | 0.11 | 0.07 | 91 | 1000.1 |
| 20260505065241 | 56 | 0 | 0.0 | 4.0 | 0.02 | 0.10 | 0.07 | 91 | 1000.3 |
| 20260505064047 | 55 | 0 | 0.0 | 1.0 | 0.01 | 0.09 | 0.06 | 91 | 1000.7 |
| 20260505062032 | 55 | 0 | 0.0 | 0.0 | 0.01 | 0.08 | 0.05 | 91 | 1000.9 |
| 20260505060832 | 55 | 0 | 0.0 | 0.0 | 0.02 | 0.08 | 0.05 | 91 | 1001.1 |
| 20260505055632 | 56 | 0 | 0.0 | 0.0 | 0.01 | 0.07 | 0.04 | 91 | 1001.4 |
| 20260505054431 | 56 | 0 | 0.0 | 0.0 | 0.02 | 0.07 | 0.04 | 91 | 1001.5 |
| 20260505053232 | 56 | 0 | 0.0 | 0.0 | 0.01 | 0.07 | 0.03 | 91 | 1001.5 |
| 20260505052032 | 56 | 0 | 0.0 | 0.0 | 0.02 | 0.07 | 0.03 | 91 | 1001.5 |
| 20260505050511 | 56 | 0 | 0.0 | 0.0 | 0.02 | 0.06 | 0.03 | 91 | 1001.8 |
| 20260505040009 | 57 | 0 | 0.0 | 3.0 | 0.01 | 0.03 | 0.00 | 88 | 1003.0 |
| 20260505034809 | 58 | 0 | 0.0 | 3.0 | 0.01 | 0.03 | 0.00 | 87 | 1003.0 |
| 20260505033609 | 58 | 0 | 0.0 | 2.0 | 0.01 | 0.02 | 0.02 | 85 | 1002.6 |
| 20260505032408 | 59 | 0 | 0.0 | 5.0 | 0.02 | 0.02 | 0.02 | 82 | 1002.5 |
| 20260505031209 | 59 | 222 | 1.0 | 11.0 | 0.02 | 0.02 | 0.02 | 80 | 1002.6 |
| 20260505030009 | 59 | 0 | 0.0 | 3.0 | 0.02 | 0.02 | 0.02 | 83 | 1002.3 |
| 20260505024808 | 60 | 0 | 0.0 | 4.0 | 0.01 | 0.01 | 0.01 | 83 | 1002.4 |
| 20260505023608 | 61 | 149 | 1.0 | 7.0 | 0.00 | 0.00 | 0.00 | 81 | 1002.3 |
| 20260505021942 | 62 | 0 | 0.0 | 2.0 | 0.00 | 0.00 | 0.00 | 76 | 1001.9 |
| 20260505020741 | 62 | 0 | 0.0 | 2.0 | 0.00 | 0.00 | 0.00 | 75 | 1001.6 |
| 20260505015543 | 62 | 0 | 0.0 | 2.0 | 0.00 | 0.00 | 0.00 | 75 | 1001.6 |
| 20260505014342 | 62 | 0 | 0.0 | 4.0 | 0.00 | 0.00 | 0.00 | 74 | 1001.5 |
| 20260505013142 | 63 | 0 | 0.0 | 3.0 | 0.00 | 0.00 | 0.00 | 73 | 1001.7 |
| 20260505011145 | 63 | 0 | 0.0 | 5.0 | 0.00 | 0.00 | 0.00 | 70 | 1001.7 |
| 20260505005945 | 64 | 0 | 0.0 | 6.0 | 0.00 | 0.00 | 0.00 | 67 | 1001.6 |
| 20260505004745 | 65 | 0 | 0.0 | 7.0 | 0.00 | 0.00 | 0.00 | 64 | 1001.7 |
| 20260505003032 | 67 | 233 | 3.0 | 7.0 | 0.00 | 0.00 | 0.00 | 56 | 1002.1 |
| 20260505001832 | 67 | 0 | 0.0 | 4.0 | 0.00 | 0.00 | 0.00 | 55 | 1001.5 |
| 20260504235944 | 68 | 0 | 0.0 | 2.0 | 0.00 | 0.00 | 0.00 | 52 | 1001.4 |
| 20260504234743 | 69 | 0 | 0.0 | 6.0 | 0.00 | 0.00 | 0.00 | 50 | 1001.5 |
| 20260504233543 | 69 | 0 | 0.0 | 7.0 | 0.00 | 0.00 | 0.00 | 49 | 1001.5 |
| 20260504232344 | 70 | 199 | 1.0 | 9.0 | 0.00 | 0.00 | 0.00 | 47 | 1001.6 |
| 20260504231144 | 70 | 266 | 1.0 | 4.0 | 0.00 | 0.00 | 0.00 | 46 | 1001.9 |
| 20260504225944 | 70 | 209 | 1.0 | 7.0 | 0.00 | 0.00 | 0.00 | 45 | 1002.1 |
| 20260504224744 | 71 | 0 | 0.0 | 6.0 | 0.00 | 0.00 | 0.00 | 44 | 1002.3 |
| 20260504223544 | 71 | 0 | 0.0 | 11.0 | 0.00 | 0.00 | 0.00 | 42 | 1002.4 |
| 20260504222344 | 71 | 257 | 1.0 | 7.0 | 0.00 | 0.00 | 0.00 | 43 | 1002.6 |
| 20260504221144 | 71 | 0 | 0.0 | 8.0 | 0.00 | 0.00 | 0.00 | 43 | 1002.5 |
| 20260504215944 | 72 | 226 | 1.0 | 5.0 | 0.00 | 0.00 | 0.00 | 40 | 1002.5 |
| 20260504214744 | 72 | 217 | 1.0 | 8.0 | 0.00 | 0.00 | 0.00 | 37 | 1002.5 |
| 20260504213407 | 72 | 166 | 2.0 | 7.0 | 0.00 | 0.00 | 0.00 | 35 | 1002.5 |
| 20260504211138 | 72 | 163 | 1.0 | 7.0 | 0.00 | 0.00 | 0.00 | 39 | 1002.4 |
| 20260504205938 | 72 | 233 | 1.0 | 10.0 | 0.00 | 0.00 | 0.00 | 41 | 1002.4 |
| 20260504204738 | 72 | 214 | 3.0 | 12.0 | 0.00 | 0.00 | 0.00 | 40 | 1002.4 |
| 20260504203538 | 72 | 0 | 0.0 | 7.0 | 0.00 | 0.00 | 0.00 | 42 | 1002.5 |
| 20260504202338 | 73 | 252 | 3.0 | 9.0 | 0.00 | 0.00 | 0.00 | 43 | 1002.8 |
| 20260504201137 | 72 | 233 | 1.0 | 8.0 | 0.00 | 0.00 | 0.00 | 42 | 1002.5 |
| 20260504195938 | 73 | 173 | 5.0 | 14.0 | 0.00 | 0.00 | 0.00 | 39 | 1002.6 |
| 20260504194739 | 72 | 239 | 2.0 | 9.0 | 0.00 | 0.00 | 0.00 | 41 | 1003.0 |
| 20260504193538 | 72 | 225 | 1.0 | 7.0 | 0.00 | 0.00 | 0.00 | 42 | 1003.1 |
| 20260504190630 | 71 | 221 | 2.0 | 9.0 | 0.00 | 0.00 | 0.00 | 44 | 1003.5 |
| 20260504185430 | 71 | 170 | 2.0 | 8.0 | 0.00 | 0.00 | 0.00 | 46 | 1003.6 |
| 20260504184230 | 70 | 154 | 2.0 | 7.0 | 0.00 | 0.00 | 0.00 | 47 | 1003.7 |
| 20260504183029 | 70 | 224 | 1.0 | 7.0 | 0.00 | 0.00 | 0.00 | 48 | 1003.9 |
| 20260504181829 | 70 | 236 | 2.0 | 5.0 | 0.00 | 0.00 | 0.00 | 49 | 1004.0 |
| 20260504180629 | 68 | 230 | 3.0 | 11.0 | 0.00 | 0.00 | 0.00 | 49 | 1004.3 |
| 20260504175429 | 68 | 221 | 3.0 | 8.0 | 0.00 | 0.00 | 0.00 | 51 | 1004.5 |
| 20260504174229 | 67 | 148 | 3.0 | 10.0 | 0.00 | 0.00 | 0.00 | 52 | 1004.6 |
| 20260504173030 | 66 | 228 | 1.0 | 7.0 | 0.00 | 0.00 | 0.00 | 56 | 1004.8 |
| 20260504171831 | 66 | 220 | 2.0 | 6.0 | 0.00 | 0.00 | 0.00 | 56 | 1004.9 |
| 20260504150626 | 60 | 147 | 1.0 | 6.0 | 0.00 | 0.00 | 0.00 | 62 | 1005.9 |
| 20260504140626 | 59 | 226 | 3.0 | 8.0 | 0.00 | 0.00 | 0.00 | 60 | 1006.0 |